DW9996 Weather Reports


time (UTC)temp
C
wind
direction
speed
KPH
gust
KPH
rain 1hr
cm
rain 24hr
cm
rain mn
cm
humidity
%
barometer
mb
20211017161623 13 236 14.5 22.5 0.00 0.00 0.00 37 1007.2
20211017160103 12 217 14.5 24.1 0.00 0.00 0.00 40 1007.6
20211017154544 12 236 16.1 24.1 0.00 0.00 0.00 42 1007.6
20211017153052 11 223 12.9 25.7 0.00 0.00 0.00 44 1007.8
20211017151614 9 226 14.5 22.5 0.00 0.00 0.00 47 1007.9
20211017150111 8 235 12.9 19.3 0.00 0.00 0.00 50 1008.0
20211017144551 7 236 8.0 11.3 0.00 0.00 0.00 53 1008.3
20211017143050 7 203 6.4 11.3 0.00 0.00 0.00 52 1008.4
20211017141559 6 218 6.4 9.7 0.00 0.00 0.00 54 1008.4
20211017140038 6 238 6.4 11.3 0.00 0.00 0.00 54 1008.6
20211017134606 5 227 8.0 12.9 0.00 0.00 0.00 57 1008.7
20211017133036 5 286 1.6 4.8 0.00 0.00 0.00 56 1008.9
20211017131532 6 264 1.6 6.4 0.00 0.00 0.00 57 1008.9
20211017130026 6 205 0.0 8.0 0.00 0.00 0.00 56 1009.0
20211017124531 6 234 6.4 12.9 0.00 0.00 0.00 57 1009.1
20211017123046 5 153 1.6 8.0 0.00 0.00 0.00 53 1009.1
20211017121604 7 270 1.6 9.7 0.00 0.00 0.00 52 1009.3
20211017120019 7 252 0.0 3.2 0.00 0.00 0.00 53 1009.6
20211017114523 7 235 1.6 11.3 0.00 0.00 0.00 52 1009.7
20211017113036 7 229 11.3 16.1 0.00 0.00 0.00 53 1009.8
20211017111540 6 180 4.8 9.7 0.00 0.00 0.00 55 1009.9
20211017110031 7 190 1.6 4.8 0.00 0.00 0.00 53 1010.0
20211017104510 7 254 0.0 4.8 0.00 0.00 0.00 52 1010.2
20211017103020 8 219 3.2 9.7 0.00 0.00 0.00 52 1010.3
20211017101506 7 244 6.4 14.5 0.00 0.00 0.00 53 1010.3
20211017100034 6 234 11.3 14.5 0.00 0.00 0.00 55 1010.5
20211017094502 6 244 11.3 17.7 0.00 0.00 0.00 56 1010.7
20211017093205 5 229 6.4 11.3 0.00 0.00 0.00 58 1010.9
20211017091610 6 228 9.7 14.5 0.00 0.00 0.00 54 1010.9
20211017090139 6 216 11.3 16.1 0.00 0.00 0.00 53 1010.9
20211017084614 5 209 4.8 12.9 0.00 0.00 0.00 58 1011.0
20211017083147 5 202 0.0 3.2 0.00 0.00 0.00 57 1011.2
20211017081617 5 198 1.6 11.3 0.00 0.00 0.00 57 1011.1
20211017080212 4 199 4.8 9.7 0.00 0.00 0.00 58 1011.2
20211017074559 5 119 0.0 6.4 0.00 0.00 0.00 55 1011.3
20211017073102 6 144 3.2 4.8 0.00 0.00 0.00 53 1011.3
20211017071546 6 155 3.2 11.3 0.00 0.00 0.00 50 1011.4
20211017070058 7 211 11.3 14.5 0.00 0.00 0.00 49 1011.3
20211017064605 7 195 11.3 17.7 0.00 0.00 0.00 47 1011.2
20211017063035 11 215 11.3 16.1 0.00 0.00 0.00 40 1011.3
20211017061639 10 231 8.0 16.1 0.00 0.00 0.00 43 1011.2
20211017060025 8 263 9.7 17.7 0.00 0.00 0.00 47 1011.3
20211017054542 7 244 4.8 12.9 0.00 0.00 0.00 48 1011.3
20211017053027 8 235 8.0 9.7 0.00 0.00 0.00 46 1011.5
20211017051547 8 211 4.8 8.0 0.00 0.00 0.00 45 1011.7
20211017050033 9 223 1.6 6.4 0.00 0.00 0.00 44 1011.6
20211017044540 10 236 8.0 14.5 0.00 0.00 0.00 43 1011.6
20211017043103 10 267 11.3 16.1 0.00 0.00 0.00 43 1011.6
20211017041529 8 250 9.7 14.5 0.00 0.00 0.00 45 1011.9
20211017040021 9 240 8.0 12.9 0.00 0.00 0.00 43 1012.0
20211017034520 11 180 4.8 11.3 0.00 0.00 0.00 37 1012.2
20211017033020 11 270 3.2 8.0 0.00 0.00 0.00 40 1012.1
20211017031516 10 206 0.0 3.2 0.00 0.00 0.00 42 1012.2
20211017030021 10 212 3.2 4.8 0.00 0.00 0.00 42 1012.2
20211017024510 11 213 3.2 6.4 0.00 0.00 0.00 38 1012.2
20211017023010 12 237 3.2 8.0 0.00 0.00 0.00 38 1012.4
20211017021517 12 232 6.4 9.7 0.00 0.00 0.00 37 1012.4
20211017020010 12 211 9.7 12.9 0.00 0.00 0.00 37 1012.5
20211017014516 13 209 8.0 11.3 0.00 0.00 0.00 36 1012.4
20211017013016 13 205 9.7 11.3 0.00 0.00 0.00 36 1012.5
20211017011506 14 207 8.0 11.3 0.00 0.00 0.00 34 1012.4
20211017010004 15 250 3.2 12.9 0.00 0.00 0.00 32 1012.5
20211017004514 15 213 11.3 17.7 0.00 0.00 0.00 32 1012.5
20211017003001 14 224 8.0 11.3 0.00 0.00 0.00 32 1012.7
20211017001817 16 209 3.2 12.9 0.00 0.00 0.00 30 1012.9
20211017000138 16 229 8.0 12.9 0.00 0.00 0.00 28 1012.9
20211016234626 18 253 9.7 19.3 0.00 0.00 0.00 27 1013.0
20211016233056 18 236 8.0 16.1 0.00 0.00 0.00 26 1013.3
20211016231625 18 249 6.4 16.1 0.00 0.00 0.00 24 1013.5
20211016230136 19 265 8.0 17.7 0.00 0.00 0.00 24 1013.5
20211016224641 19 251 11.3 25.7 0.00 0.00 0.00 24 1013.6
20211016223118 19 270 11.3 29.0 0.00 0.00 0.00 24 1013.7
20211016221611 20 244 9.7 24.1 0.00 0.00 0.00 23 1014.0
20211016220107 20 259 9.7 20.9 0.00 0.00 0.00 24 1013.8
20211016214635 20 281 11.3 25.7 0.00 0.00 0.00 24 1013.9
20211016213143 21 267 17.7 27.4 0.00 0.00 0.00 23 1013.7
20211016211600 21 276 12.9 29.0 0.00 0.00 0.00 23 1013.6
20211016210126 21 333 16.1 30.6 0.00 0.00 0.00 23 1013.6
20211016204618 21 259 14.5 33.8 0.00 0.00 0.00 24 1013.7
20211016203100 21 252 19.3 33.8 0.00 0.00 0.00 24 1013.9
20211016201550 21 284 9.7 35.4 0.00 0.00 0.00 24 1014.2
20211016200123 21 259 11.3 32.2 0.00 0.00 0.00 25 1014.4
20211016194603 20 262 16.1 35.4 0.00 0.00 0.00 26 1014.6
20211016193033 20 260 14.5 33.8 0.00 0.00 0.00 26 1014.9
20211016191606 20 250 16.1 32.2 0.00 0.00 0.00 26 1015.1
20211016190055 20 231 14.5 37.0 0.00 0.00 0.00 27 1015.5
20211016184535 19 252 14.5 30.6 0.00 0.00 0.00 27 1015.6
20211016183059 19 227 12.9 33.8 0.00 0.00 0.00 28 1015.8
20211016181548 18 234 14.5 38.6 0.00 0.00 0.00 30 1016.0
20211016180038 17 267 22.5 35.4 0.00 0.00 0.00 33 1016.0
20211016174524 17 240 17.7 38.6 0.00 0.00 0.00 35 1016.0
20211016173019 16 232 14.5 41.8 0.00 0.00 0.00 36 1016.3
20211016171514 15 238 20.9 35.4 0.00 0.00 0.00 37 1016.3
20211016170002 15 223 17.7 29.0 0.00 0.00 0.00 40 1016.5
20211016164638 14 236 17.7 27.4 0.00 0.00 0.00 42 1016.7
20211016163121 12 249 19.3 30.6 0.00 0.00 0.00 45 1016.7